Regional Weather Roundup
Issued by NWS

Home | Current Version | Previous Version | Text Only | Print | Product List | Glossary On
Versions: 1 2 3 4 5 6 7 8 9 10 11 12 13 14 15 16 17 18 19 20 21 22 23 24 25 26 27 28 29 30 31 32 33 34 35 36 37 38 39 40 41 42 43 44 45 46 47 48 49 50
000
ASUS43 KLMK 251710
RWRKY
KENTUCKY REGIONAL WEATHER ROUNDUP
NATIONAL WEATHER SERVICE LOUISVILLE KY
100 PM EDT SAT MAR 25 2017

NOTE "FAIR" INDICATES FEW OR NO CLOUDS BELOW 12,000 FEET
WITH NO SIGNIFICANT WEATHER AND/OR OBSTRUCTIONS TO VISIBILITY.

KYZ001>023-026-027-061>063-070>075-251800-
WESTERN AND SOUTH CENTRAL KENTUCKY

CITY           SKY/WX    TMP DP  RH WIND       PRES   REMARKS
PADUCAH        CLOUDY    67  56  67 S17G24    29.94F
HENDERSON      CLOUDY    72  52  49 S21G33    29.96S
OWENSBORO      PTSUNNY   72  53  51 S26G32    29.99F
HOPKINSVILLE   CLOUDY    71  52  51 S20G28    30.00S
BOWLING GREEN  CLOUDY    74  51  44 S24G30    30.05F
GLASGOW        MOSUNNY   73  49  43 S15G25    30.08F
$$

KYZ024-025-028>034-038-045-046-053-251800-
NORTH CENTRAL KENTUCKY

CITY           SKY/WX    TMP DP  RH WIND       PRES   REMARKS
LOUISVILLE/SDF PTSUNNY   76  48  37 S18G32    30.05F
LOUISVILLE/LOU SUNNY     76  50  40 S18G28    30.06F
FORT KNOX      MOSUNNY   75  51  43 S25G33    30.03F
$$

KYZ035>037-039>044-047>052-055>060-089>105-251800-
NORTHEAST KENTUCKY

CITY           SKY/WX    TMP DP  RH WIND       PRES   REMARKS
LEXINGTON      CLOUDY    73  48  41 S21G30    30.13F
COVINGTON      PTSUNNY   71  51  49 SW13G20   30.10F
FRANKFORT      CLOUDY    74  48  39 S14G23    30.10F
$$

KYZ054-064>069-076>088-106>120-251800-
SOUTHEAST KENTUCKY

CITY           SKY/WX    TMP DP  RH WIND       PRES   REMARKS
JACKSON        MOSUNNY   74  47  38 VRB7      30.17F
LONDON         PTSUNNY   71  47  42 S14       30.16F
SOMERSET       CLOUDY    72  48  43 S14G21    30.16F
MIDDLESBORO    PTSUNNY   72  50  46 S7G16     30.20F
MONTICELLO     CLOUDY    70  53  54 SE12      30.16F
$$





USA.gov is the U.S. government's official web portal to all federal, state and local government web resources and services.